SCP
0 0 0 0 0 0 0 0 0 0 0 0 0 0 0 -0 0 0 0 -0 0 0 -0 -0 -0 -0 -0 -0 -0 -0 -0 -0
0 0 0 0 0 0 0 0 0 0 0 0 -0 -0 -0 0 0 0 0 -0 0 0 -0 -0 -0 -0 -0 -0 -0 -0 0 0
0 0 0 0 0 0 0 0 0 0 0 0 0 0 0 0 0 0 0 0 -0 0 -0 -0 -0 -0 -0 -0 -0 -0 0 0
0 0 0 0 0 0 0 0 0 0 0 0 0 0 0 0 0 0 0 0 -0 -0 0 -0 -0 -0 -0 -0 -0 -0 0 0
0 0 0 0 0 0 0 0 0 0 0 0 0 0 0 0 0 0 0 0 0 -0 0 0 -0 -0 -0 -0 -0 -0 0 0
0 0 0 0 0 0 0 0 0 0 0 0 0 0 0 0 0 0 0 0 0 0 0 0 0 -0 -0 -0 -0 -0 -0 0
0 0 0 0 0 0 0 -0 0 0 0 -0 0 0 0 0 0 0 0 0 0 0 0 0 0 0 0 -0 -0 -0 0 0
0 0 0 0 0 0 0 0 0 0 0 0 0 0 0 0 0 0 0 0 0 0 0 0 0 0 0 0 0 0 0 0
0 0 0 0 0 -0 0 0 0 0 0 0 0 0 0 0 0 0 0 0 0 0 0 0 0 0 0 0 0 0 0 0
0 0 0 0 0 0 -0 0 0 0 0 -0 0 0 0 0 0 0 0 1 0 0 0 0 0 0 0 0 0 0 0 0
0 0 0 0 0 0 0 -0 0 0 0 0 0 -0 0 0 0 0 1 2 1 0 0 0 0 0 0 0 0 0 0 0
0 0 0 0 0 0 0 -0 -0 0 0 0 0 0 0 0 0 0 0 2 1 1 0 0 0 0 0 0 0 0 0 0
0 0 0 0 0 0 0 -0 -0 0 0 0 0 0 0 -0 0 0 0 0 1 1 0 0 0 0 0 0 0 0 0 0
0 0 0 0 0 0 0 0 0 0 0 0 0 0 0 0 0 0 0 0 0 1 1 1 0 0 0 0 0 0 0 0
0 0 0 0 0 0 0 0 0 0 0 0 -0 -0 0 0 0 0 0 0 0 0 0 1 2 1 1 1 1 1 1 1
0 0 0 0 0 0 0 0 0 0 0 0 0 -0 -0 -0 0 0 0 0 0 0 0 0 1 2 2 2 1 1 1 1
0 0 0 0 0 0 0 0 0 0 0 0 0 0 -0 0 0 0 0 0 0 0 1 6 8 6 5 3 3 2 1 1
0 0 0 0 0 -0 0 0 0 0 0 0 0 0 0 0 0 0 0 0 0 0 3 8 6 6 5 4 2 2 2 1
0 0 0 0 0 0 0 -0 -0 0 0 0 0 0 0 0 0 0 0 0 0 0 3 6 5 4 0 0 0 0 0 0
0 0 0 0 0 -0 0 0 0 0 0 0 0 0 0 0 0 0 0 0 0 0 2 3 1 0 0 0 0 0 0 1
Wind_Speed_500mb
6 7 12 11 9 8 21 65 59 22 32 24 23 29 68 82 78 79 75 77 77 74 69 62 58 54 49 46 43 39 36 33
4 20 14 13 25 30 32 54 56 58 6 12 41 58 76 76 78 84 80 79 80 77 70 61 56 51 47 43 40 38 34 30
7 19 14 16 28 41 20 34 55 63 8 38 55 54 70 71 84 84 82 81 79 76 67 58 55 51 46 42 38 35 34 32
11 21 18 13 37 35 17 44 50 44 26 24 56 61 71 74 83 85 85 83 78 73 65 59 55 51 46 42 39 37 35 32
10 19 23 17 28 23 16 24 22 37 9 7 56 64 70 75 84 88 83 81 77 72 65 57 54 50 45 42 40 39 37 34
12 20 25 21 21 32 39 30 27 35 11 8 57 61 86 85 92 88 84 79 77 72 67 62 57 52 47 42 41 40 38 37
14 22 19 43 15 57 53 41 51 27 10 10 41 59 76 82 85 83 82 78 75 73 69 65 60 54 51 45 43 42 41 41
12 19 18 37 47 52 46 60 48 41 23 12 29 67 68 67 77 82 82 81 77 74 70 66 63 58 54 49 46 46 45 45
21 24 33 42 56 55 38 37 51 23 39 30 17 28 67 66 71 81 81 76 77 74 70 68 65 61 57 52 47 47 47 48
31 45 44 38 65 51 50 59 73 59 48 30 22 23 25 60 77 75 76 76 78 78 73 70 66 61 57 54 50 50 48 47
44 51 48 52 52 53 72 75 70 76 53 43 30 30 30 49 77 83 73 77 82 85 78 70 66 63 60 57 52 47 43 44
30 39 39 33 44 49 84 71 61 72 66 52 49 41 29 7 22 63 76 85 82 81 79 67 62 57 48 46 44 46 45 45
12 10 10 30 35 42 56 58 57 62 74 65 51 56 62 38 21 32 46 66 82 75 68 64 60 44 36 37 38 46 45 45
7 12 9 13 47 37 54 58 64 60 63 76 69 53 62 64 46 43 43 42 37 63 70 61 57 60 49 50 45 48 49 52
9 11 12 13 34 13 35 39 53 65 68 67 75 63 62 65 61 46 53 57 75 59 68 60 66 58 55 52 49 52 56 62
5 6 4 18 29 12 32 36 33 41 50 60 75 88 77 77 74 67 53 61 70 76 71 54 48 59 61 56 53 58 63 64
9 10 8 17 32 26 16 25 31 46 52 61 63 69 87 61 66 75 77 62 79 98 96 81 92 82 75 66 68 70 67 61
8 18 21 17 40 36 21 14 35 46 56 60 66 72 71 76 86 77 85 81 69 89 87 93 93 82 81 71 72 69 68 61
15 23 9 13 39 24 23 24 38 43 51 58 62 70 77 76 75 90 81 78 58 66 84 94 91 83 82 76 75 69 70 63
23 15 6 9 25 29 28 22 17 33 47 61 72 75 77 86 78 73 82 72 77 57 82 93 88 84 83 79 74 62 62 65
Wind_Direction_500mb
117 169 193 234 241 245 297 306 296 286 230 138 160 162 151 157 161 165 165 168 169 165 165 160 161 162 165 167 167 170 169 169
119 247 252 250 299 307 309 307 320 338 143 120 151 148 155 159 166 167 166 172 171 168 168 162 165 168 172 177 179 178 177 179
244 255 265 283 284 295 299 298 310 334 277 141 156 155 161 163 170 170 169 173 173 171 172 168 172 175 178 183 190 191 191 190
236 260 274 282 289 293 277 294 309 335 326 147 171 164 164 166 173 176 172 174 174 173 177 176 178 182 186 192 197 204 208 208
233 266 285 275 290 287 278 298 304 337 16 245 183 180 171 172 176 178 177 176 176 177 180 183 183 186 191 199 206 211 218 223
224 250 275 276 292 298 297 303 317 334 330 306 181 180 173 175 177 181 181 180 181 183 184 187 189 192 196 204 211 218 224 230
224 240 260 295 309 301 323 340 340 353 236 188 197 183 179 176 180 183 185 187 189 190 191 193 194 197 200 206 217 223 228 233
230 237 288 298 298 301 320 318 313 345 6 18 188 183 181 178 183 189 191 193 197 198 198 199 200 201 205 208 217 226 232 237
260 270 276 282 286 297 309 299 297 320 322 324 55 181 183 189 194 194 200 199 203 205 207 206 208 207 210 213 220 230 237 243
261 263 263 274 284 285 285 275 287 294 303 311 270 255 276 215 196 198 200 203 209 212 210 211 215 215 217 222 225 235 244 251
268 265 259 262 266 275 283 281 288 293 290 288 297 274 298 232 217 205 213 207 207 209 210 212 218 220 224 228 233 239 240 248
279 277 285 268 265 268 269 278 283 288 293 290 284 283 288 285 249 224 223 215 215 213 211 210 218 217 222 228 235 241 244 251
288 277 265 288 279 256 269 282 289 278 286 289 280 278 275 273 228 190 200 214 226 222 211 206 215 217 229 241 242 247 251 258
320 351 283 195 259 269 278 282 284 287 286 278 276 283 276 275 270 237 209 214 197 224 216 213 231 244 246 242 250 253 260 257
300 242 247 216 274 326 322 293 274 275 275 281 286 272 271 278 273 260 233 231 212 208 217 236 239 240 237 238 249 259 264 259
227 302 3 294 293 279 299 307 307 322 322 300 276 274 275 268 271 271 262 231 203 197 216 214 227 229 232 237 244 252 257 256
278 238 301 282 283 287 288 300 304 304 301 302 305 296 277 267 261 263 263 255 240 231 232 234 218 224 226 224 232 238 242 245
293 316 312 287 283 288 287 266 291 289 292 291 298 304 291 278 257 258 258 256 245 235 232 224 219 222 226 234 238 244 250 245
318 326 331 303 289 299 298 292 294 290 293 297 302 300 302 307 276 255 253 247 254 237 231 215 217 221 222 224 232 237 245 252
329 335 284 14 288 298 303 295 292 302 311 308 306 307 303 300 301 276 244 247 252 245 228 223 221 217 222 221 230 242 258 269
Wind_Speed_850mb
6 7 12 11 9 8 21 65 59 22 32 24 23 29 68 82 78 79 75 77 77 74 69 62 58 54 49 46 43 39 36 33
4 20 14 13 25 30 32 54 56 58 6 12 41 58 76 76 78 84 80 79 80 77 70 61 56 51 47 43 40 38 34 30
7 19 14 16 28 41 20 34 55 63 8 38 55 54 70 71 84 84 82 81 79 76 67 58 55 51 46 42 38 35 34 32
11 21 18 13 37 35 17 44 50 44 26 24 56 61 71 74 83 85 85 83 78 73 65 59 55 51 46 42 39 37 35 32
10 19 23 17 28 23 16 24 22 37 9 7 56 64 70 75 84 88 83 81 77 72 65 57 54 50 45 42 40 39 37 34
12 20 25 21 21 32 39 30 27 35 11 8 57 61 86 85 92 88 84 79 77 72 67 62 57 52 47 42 41 40 38 37
14 22 19 43 15 57 53 41 51 27 10 10 41 59 76 82 85 83 82 78 75 73 69 65 60 54 51 45 43 42 41 41
12 19 18 37 47 52 46 60 48 41 23 12 29 67 68 67 77 82 82 81 77 74 70 66 63 58 54 49 46 46 45 45
21 24 33 42 56 55 38 37 51 23 39 30 17 28 67 66 71 81 81 76 77 74 70 68 65 61 57 52 47 47 47 48
31 45 44 38 65 51 50 59 73 59 48 30 22 23 25 60 77 75 76 76 78 78 73 70 66 61 57 54 50 50 48 47
44 51 48 52 52 53 72 75 70 76 53 43 30 30 30 49 77 83 73 77 82 85 78 70 66 63 60 57 52 47 43 44
30 39 39 33 44 49 84 71 61 72 66 52 49 41 29 7 22 63 76 85 82 81 79 67 62 57 48 46 44 46 45 45
12 10 10 30 35 42 56 58 57 62 74 65 51 56 62 38 21 32 46 66 82 75 68 64 60 44 36 37 38 46 45 45
7 12 9 13 47 37 54 58 64 60 63 76 69 53 62 64 46 43 43 42 37 63 70 61 57 60 49 50 45 48 49 52
9 11 12 13 34 13 35 39 53 65 68 67 75 63 62 65 61 46 53 57 75 59 68 60 66 58 55 52 49 52 56 62
5 6 4 18 29 12 32 36 33 41 50 60 75 88 77 77 74 67 53 61 70 76 71 54 48 59 61 56 53 58 63 64
9 10 8 17 32 26 16 25 31 46 52 61 63 69 87 61 66 75 77 62 79 98 96 81 92 82 75 66 68 70 67 61
8 18 21 17 40 36 21 14 35 46 56 60 66 72 71 76 86 77 85 81 69 89 87 93 93 82 81 71 72 69 68 61
15 23 9 13 39 24 23 24 38 43 51 58 62 70 77 76 75 90 81 78 58 66 84 94 91 83 82 76 75 69 70 63
23 15 6 9 25 29 28 22 17 33 47 61 72 75 77 86 78 73 82 72 77 57 82 93 88 84 83 79 74 62 62 65
Wind_Direction_850mb
117 169 193 234 241 245 297 306 296 286 230 138 160 162 151 157 161 165 165 168 169 165 165 160 161 162 165 167 167 170 169 169
119 247 252 250 299 307 309 307 320 338 143 120 151 148 155 159 166 167 166 172 171 168 168 162 165 168 172 177 179 178 177 179
244 255 265 283 284 295 299 298 310 334 277 141 156 155 161 163 170 170 169 173 173 171 172 168 172 175 178 183 190 191 191 190
236 260 274 282 289 293 277 294 309 335 326 147 171 164 164 166 173 176 172 174 174 173 177 176 178 182 186 192 197 204 208 208
233 266 285 275 290 287 278 298 304 337 16 245 183 180 171 172 176 178 177 176 176 177 180 183 183 186 191 199 206 211 218 223
224 250 275 276 292 298 297 303 317 334 330 306 181 180 173 175 177 181 181 180 181 183 184 187 189 192 196 204 211 218 224 230
224 240 260 295 309 301 323 340 340 353 236 188 197 183 179 176 180 183 185 187 189 190 191 193 194 197 200 206 217 223 228 233
230 237 288 298 298 301 320 318 313 345 6 18 188 183 181 178 183 189 191 193 197 198 198 199 200 201 205 208 217 226 232 237
260 270 276 282 286 297 309 299 297 320 322 324 55 181 183 189 194 194 200 199 203 205 207 206 208 207 210 213 220 230 237 243
261 263 263 274 284 285 285 275 287 294 303 311 270 255 276 215 196 198 200 203 209 212 210 211 215 215 217 222 225 235 244 251
268 265 259 262 266 275 283 281 288 293 290 288 297 274 298 232 217 205 213 207 207 209 210 212 218 220 224 228 233 239 240 248
279 277 285 268 265 268 269 278 283 288 293 290 284 283 288 285 249 224 223 215 215 213 211 210 218 217 222 228 235 241 244 251
288 277 265 288 279 256 269 282 289 278 286 289 280 278 275 273 228 190 200 214 226 222 211 206 215 217 229 241 242 247 251 258
320 351 283 195 259 269 278 282 284 287 286 278 276 283 276 275 270 237 209 214 197 224 216 213 231 244 246 242 250 253 260 257
300 242 247 216 274 326 322 293 274 275 275 281 286 272 271 278 273 260 233 231 212 208 217 236 239 240 237 238 249 259 264 259
227 302 3 294 293 279 299 307 307 322 322 300 276 274 275 268 271 271 262 231 203 197 216 214 227 229 232 237 244 252 257 256
278 238 301 282 283 287 288 300 304 304 301 302 305 296 277 267 261 263 263 255 240 231 232 234 218 224 226 224 232 238 242 245
293 316 312 287 283 288 287 266 291 289 292 291 298 304 291 278 257 258 258 256 245 235 232 224 219 222 226 234 238 244 250 245
318 326 331 303 289 299 298 292 294 290 293 297 302 300 302 307 276 255 253 247 254 237 231 215 217 221 222 224 232 237 245 252
329 335 284 14 288 298 303 295 292 302 311 308 306 307 303 300 301 276 244 247 252 245 228 223 221 217 222 221 230 242 258 269